GFSSW_prec_cloud_159.txt.gz
Cloud_Cover
100 100 100 100 100 100 100 100 100 100 100 100 100 100 100 100 100 100 100 100 100 100 85 92 77 45 17 31 5 5 5 5 0 0 0 0 0 0 0 0 0 0 0 0 0
100 100 100 100 100 100 100 100 100 100 100 100 100 100 100 100 100 100 100 99 100 99 100 89 100 77 60 83 44 5 5 5 5 0 0 0 0 0 0 0 0 0 0 0 0
100 100 100 100 100 100 100 100 100 100 100 100 100 100 100 100 100 100 100 91 90 100 100 100 96 77 44 15 22 5 5 5 5 0 0 0 0 0 0 0 0 0 0 0 0
100 100 100 100 100 100 100 100 100 100 100 100 100 100 100 100 100 100 100 97 100 100 100 100 100 99 91 31 16 7 5 5 5 5 0 5 1 0 0 0 0 0 0 0 0
100 100 100 100 100 100 100 100 100 100 100 100 100 100 100 100 100 100 100 100 57 100 99 100 79 10 12 11 10 20 5 6 72 86 18 3 0 0 0 0 0 0 0 0 0
100 100 100 100 100 100 100 100 100 100 100 100 100 100 100 100 100 100 100 100 90 100 100 88 99 89 78 59 74 98 80 59 18 80 100 74 8 4 0 0 0 0 0 0 0
100 100 100 100 100 100 100 100 100 100 100 100 100 100 100 100 100 100 100 100 100 100 100 100 99 100 100 100 100 100 38 100 100 53 40 91 100 98 5 4 0 0 0 0 0
100 100 100 100 100 100 100 100 100 100 100 100 100 100 93 100 100 100 100 100 100 100 100 100 100 100 100 100 100 100 100 71 93 99 77 29 100 69 5 5 4 5 5 1 0
100 100 100 100 100 100 100 100 100 100 100 100 74 93 100 94 100 100 100 100 100 100 100 100 100 100 100 100 100 100 100 100 99 59 90 8 96 67 5 5 5 15 6 1 0
100 100 100 100 100 100 100 100 100 100 100 100 100 96 100 99 99 100 100 100 100 100 100 100 99 97 63 100 100 100 100 100 100 90 6 70 98 100 14 0 5 5 5 5 5
100 100 100 100 100 100 100 100 100 100 100 88 100 100 100 100 100 100 100 100 100 100 100 100 97 100 100 100 100 100 100 100 100 100 100 100 94 100 88 10 12 5 5 5 5
100 100 100 100 100 100 100 100 100 100 100 100 100 100 100 100 100 100 100 100 100 100 100 100 100 100 100 100 100 100 93 98 100 100 86 100 100 100 100 100 90 32 5 5 2
100 100 100 100 100 100 100 100 100 100 100 100 98 100 100 100 100 100 100 100 100 100 100 100 100 100 100 100 100 100 27 100 100 100 93 24 9 13 73 99 100 5 7 5 5
93 100 100 100 100 100 100 100 100 100 100 100 100 99 67 100 100 100 100 100 100 100 100 100 100 100 100 100 100 100 100 100 100 84 73 12 29 8 91 99 97 58 17 9 5
100 100 100 100 100 100 100 100 100 100 100 100 100 100 100 88 50 100 100 98 100 100 100 100 100 100 100 100 100 100 100 82 36 58 100 100 91 100 100 100 100 100 89 6 25
100 100 100 100 100 100 100 100 100 100 100 100 100 97 76 100 88 100 100 100 99 93 24 38 100 54 55 100 100 100 100 100 100 100 87 98 79 98 87 95 100 100 97 45 5
100 100 99 78 100 100 100 100 100 100 100 100 100 100 100 100 100 100 100 100 100 100 100 100 100 100 100 100 100 100 100 100 100 100 25 39 30 53 41 55 78 100 100 91 41
100 100 100 100 99 100 100 100 100 100 100 99 86 100 100 100 100 100 100 100 99 100 100 99 100 100 100 100 100 100 100 88 86 52 26 6 47 79 70 32 100 98 8 5 5
100 100 100 100 100 100 100 100 100 100 71 100 98 100 100 100 100 100 100 100 100 100 100 100 100 100 100 100 100 100 96 100 100 27 12 3 3 4 29 94 99 8 9 95 5
5 6 36 59 100 100 100 100 100 100 100 74 90 100 100 100 100 100 100 100 100 100 100 100 100 100 100 100 100 100 100 100 92 100 100 5 5 19 16 100 61 66 8 5 5
32 95 2 91 100 100 100 100 100 98 70 100 99 100 90 100 100 100 100 100 100 100 100 100 100 100 100 100 100 100 100 100 100 94 36 6 0 46 91 91 96 15 5 1 0
99 97 4 0 100 100 100 100 100 100 100 100 72 100 100 99 100 100 100 100 100 100 100 100 100 100 100 100 100 98 47 98 57 72 60 17 0 57 100 81 66 5 5 4 5
100 98 48 53 81 96 100 100 100 100 100 92 100 89 18 93 100 100 100 100 100 100 100 100 100 100 100 64 21 87 80 100 100 100 97 21 5 100 38 85 99 96 49 5 5
100 90 88 100 32 100 100 100 97 100 100 100 76 74 100 95 99 97 100 100 100 100 100 100 100 100 58 97 100 58 89 100 100 100 10 6 5 34 87 58 17 13 34 49 79
100 75 12 82 100 86 99 88 99 100 100 100 100 90 100 100 100 85 100 100 100 100 100 100 100 100 100 95 70 90 84 100 100 100 95 10 7 80 98 29 31 53 42 5 40
49 100 100 90 61 100 100 100 100 100 100 100 99 68 95 75 35 100 100 100 100 100 100 100 100 100 100 100 100 100 100 100 68 32 97 100 37 100 100 100 67 86 100 100 100
100 100 100 100 100 92 100 100 100 100 100 100 100 100 100 99 43 99 100 93 100 100 100 100 100 100 59 96 94 100 98 100 100 100 100 100 100 100 100 100 100 100 100 100 100

GFSSW_prec_cloud_162.txt.gz
Cloud_Cover
100 100 100 100 100 100 100 100 100 100 100 100 100 100 100 100 100 100 100 98 99 75 100 73 100 80 96 94 44 28 5 4 0 0 0 0 0 0 0 0 0 0 0 0 0
100 100 100 100 100 100 100 100 100 100 100 100 100 100 100 100 100 100 100 85 82 69 100 94 100 92 74 100 91 91 25 5 4 1 0 0 0 0 0 0 0 0 0 0 0
100 100 100 100 100 100 100 100 100 100 100 100 100 100 100 100 100 99 6 94 100 100 100 100 100 100 97 26 71 58 38 19 5 5 5 0 0 0 0 0 0 0 0 0 0
100 100 100 100 100 100 100 100 100 100 100 100 100 100 100 100 100 100 86 43 100 100 100 100 100 100 90 6 10 59 82 66 56 22 6 2 0 0 0 0 0 0 0 0 0
100 100 100 100 100 100 100 100 100 100 100 100 100 100 100 100 100 100 100 100 100 100 100 100 98 40 45 5 12 5 55 94 86 69 79 6 1 0 0 0 0 0 0 0 0
100 100 100 100 100 100 100 100 100 100 100 100 100 100 100 100 100 100 100 100 100 100 100 100 100 11 54 7 14 90 46 93 100 100 98 46 5 5 1 0 0 0 0 0 0
100 100 100 100 100 100 100 100 100 100 100 100 100 100 100 100 100 100 100 100 100 100 100 100 100 71 66 57 52 91 83 25 80 62 37 7 5 5 5 4 5 0 0 0 0
100 100 100 100 100 100 100 100 100 100 100 100 100 100 95 100 100 100 100 100 100 100 100 100 100 100 56 81 100 93 31 75 45 5 32 6 71 5 5 5 4 5 5 4 0
100 100 100 100 100 100 100 100 100 100 100 100 100 100 100 100 100 100 100 100 100 100 100 100 100 100 76 93 100 97 98 67 30 98 100 84 100 41 7 5 5 5 5 7 1
100 100 100 100 100 100 100 100 100 100 100 100 100 100 100 100 100 100 100 100 100 100 100 100 100 100 100 100 100 100 97 100 100 100 100 100 100 100 100 5 5 5 5 5 3
100 100 100 100 100 100 100 100 100 100 100 100 100 100 100 100 100 100 100 100 100 100 100 100 100 100 100 100 100 100 100 100 100 100 100 100 100 100 100 26 5 7 5 5 0
100 100 100 100 100 100 100 100 100 100 100 100 100 100 100 100 100 100 100 100 100 100 100 100 100 100 100 100 100 100 100 100 100 100 100 100 100 100 100 100 100 99 14 6 0
78 100 100 100 100 100 100 100 100 100 100 100 100 100 100 100 100 100 100 100 100 100 100 100 100 100 100 100 100 100 100 100 100 100 100 98 100 100 100 100 100 100 100 100 100
1 39 100 100 100 100 100 100 100 100 100 100 100 94 100 100 100 100 100 100 100 100 100 100 100 100 100 100 100 100 100 100 100 100 100 57 20 91 100 100 100 100 100 100 100
5 10 95 95 100 100 100 100 100 100 100 95 99 96 100 100 100 100 100 100 100 100 100 100 100 100 100 100 100 100 100 100 100 100 100 100 61 98 100 100 100 100 28 36 6
49 57 85 70 99 100 100 100 100 100 100 100 100 97 90 78 100 100 100 100 100 100 100 100 100 100 100 100 100 99 100 100 100 100 71 97 100 17 97 100 100 100 96 70 6
4 99 96 42 92 100 100 100 100 100 100 100 100 100 64 100 100 100 100 99 100 100 100 100 100 100 100 100 100 100 100 100 100 97 59 69 87 5 52 93 100 100 100 41 5
12 100 100 100 99 100 100 100 100 100 100 96 100 100 100 100 100 100 100 100 100 86 100 100 100 100 100 100 100 100 100 100 100 71 37 10 5 5 100 97 100 100 100 99 97
38 100 100 100 100 100 100 100 100 100 93 100 100 100 100 100 100 100 96 99 98 100 100 100 98 100 100 100 100 100 100 100 100 57 12 5 7 12 99 91 6 57 100 100 98
56 100 100 100 100 100 100 100 100 100 96 93 100 58 99 100 100 100 100 83 75 96 100 100 100 100 100 100 100 100 100 100 100 100 100 5 3 5 70 100 100 92 10 5 1
72 100 100 100 100 100 100 100 100 100 100 72 5 84 55 99 97 100 100 100 100 100 100 100 100 100 100 100 100 100 100 100 100 96 63 5 1 33 86 88 100 53 7 5 5
100 84 57 100 100 100 100 100 100 100 100 90 100 84 20 99 100 100 100 100 100 100 100 100 100 100 100 100 100 100 100 91 66 13 56 15 0 24 79 66 47 5 0 0 0
88 88 64 26 44 100 100 97 18 13 100 100 38 8 30 97 94 100 100 100 100 100 100 100 100 100 100 96 94 100 100 100 100 100 78 57 4 50 4 14 76 78 54 5 0
15 71 100 94 20 50 100 11 100 100 100 100 100 83 45 73 100 100 100 100 100 100 100 100 100 49 13 95 100 100 100 100 100 100 9 7 5 92 44 68 14 5 5 5 5
57 23 94 92 100 99 99 100 100 100 100 100 100 87 12 73 66 83 100 100 100 100 100 100 100 100 65 96 99 100 100 100 100 70 82 34 19 77 100 79 5 5 5 5 5
100 100 99 90 5 71 40 100 100 100 100 100 100 100 99 92 8 98 100 100 100 100 100 100 100 100 100 100 100 98 100 96 23 5 6 5 4 96 100 55 5 5 5 5 5
100 99 18 72 57 30 24 4 45 100 100 100 100 100 100 60 39 93 100 100 100 100 100 100 100 100 83 96 100 100 23 14 99 99 100 96 22 100 97 100 98 49 5 5 5

GFSSW_prec_cloud_165.txt.gz
Cloud_Cover
100 100 100 100 100 100 100 100 100 100 100 100 100 100 100 100 100 100 100 100 100 75 74 85 62 98 93 95 100 67 26 29 6 5 0 0 0 0 0 0 0 0 0 0 0
100 100 100 100 100 100 100 100 100 100 100 100 100 100 100 100 100 100 100 100 97 100 100 84 100 83 93 100 100 100 66 6 39 5 4 0 0 0 0 0 0 0 0 0 0
100 100 100 100 100 100 100 100 100 100 100 100 100 100 100 100 100 100 100 100 100 98 100 100 60 82 54 97 100 100 28 41 5 5 5 3 0 0 0 0 0 0 0 0 0
100 100 100 100 100 100 100 100 100 100 100 100 100 100 100 100 100 100 100 100 100 100 100 100 71 96 100 61 96 100 67 24 5 5 5 5 5 5 2 0 0 0 0 0 0
100 100 100 100 100 100 100 100 100 100 100 100 100 100 100 100 100 100 100 100 100 100 100 100 54 50 100 100 81 70 81 99 47 20 20 12 7 5 5 4 0 0 0 0 0
100 100 100 100 100 100 100 100 100 100 100 100 100 100 100 100 100 100 100 100 100 100 100 100 38 32 88 100 100 50 100 97 93 56 58 34 37 8 5 5 5 0 0 0 0
100 100 100 100 100 100 100 100 100 100 100 100 100 100 100 100 100 100 100 100 100 100 100 100 69 12 84 100 100 97 84 94 96 100 100 16 26 64 5 5 5 3 0 0 0
100 100 100 100 100 100 100 100 100 100 100 100 100 99 99 100 100 100 100 100 100 100 100 100 88 70 95 100 100 100 28 76 98 59 71 28 73 5 5 5 5 5 4 0 0
100 100 100 100 100 100 100 100 100 100 100 100 100 100 99 100 100 100 100 100 100 100 100 100 100 99 88 100 100 100 100 93 13 14 24 34 84 5 5 5 5 43 55 12 5
81 100 100 100 100 100 100 100 100 100 100 100 100 100 55 100 100 100 100 100 100 100 100 100 100 100 100 100 100 100 100 100 6 5 5 6 19 5 4 5 5 6 30 11 41
100 100 100 100 100 100 100 100 100 100 100 100 84 100 97 100 100 100 100 100 100 100 100 100 100 100 100 100 100 100 100 100 59 65 5 5 51 5 5 5 78 100 100 100 100
99 100 100 100 100 100 100 100 100 99 100 100 100 100 100 100 100 100 100 100 100 100 100 100 100 100 100 100 100 100 100 100 100 100 43 5 5 5 5 5 94 100 100 100 100
99 100 100 100 100 100 100 100 100 86 100 100 100 100 100 100 100 100 100 100 100 100 100 100 100 100 100 100 100 100 100 100 100 100 100 15 5 21 24 100 100 100 100 100 100
90 98 100 100 100 100 100 100 100 100 100 100 100 100 94 100 100 100 100 100 100 100 100 100 100 100 100 100 100 100 100 100 100 100 100 100 88 98 100 100 100 100 100 100 100
96 97 100 100 100 100 100 100 100 100 100 42 100 100 100 100 100 100 100 100 100 100 100 100 100 100 100 100 100 100 100 100 100 100 100 100 100 100 100 100 100 100 100 100 100
57 62 100 100 82 100 100 100 100 100 100 92 95 100 100 74 100 100 100 100 100 100 100 100 100 100 100 100 100 100 100 100 100 96 69 100 58 89 100 100 100 100 100 100 100
10 40 83 83 48 100 100 100 100 100 100 100 99 100 100 97 100 100 100 100 100 100 100 100 100 100 100 100 100 100 100 100 100 94 5 66 95 5 100 100 100 100 100 100 100
5 5 75 53 77 87 100 100 100 100 100 99 84 100 100 100 100 100 100 100 100 100 100 100 100 100 100 100 100 100 100 100 100 100 100 100 25 5 40 100 100 100 100 100 100
5 5 7 99 100 100 100 100 100 100 100 100 100 100 100 100 100 100 100 92 99 100 100 100 100 100 100 100 100 100 59 100 100 100 97 77 94 14 57 100 100 100 100 100 100
5 41 65 91 100 100 100 100 100 100 100 100 99 100 100 100 100 100 100 100 100 100 100 100 100 100 100 100 100 100 100 100 100 100 100 83 90 95 94 90 98 100 96 37 36
34 92 73 100 100 100 100 100 100 100 100 100 97 100 100 100 100 100 100 100 100 100 100 100 100 100 100 100 100 100 100 100 100 100 100 63 5 29 100 100 100 100 100 61 19
13 100 100 100 100 100 100 100 46 99 100 100 100 99 87 98 100 100 100 100 100 100 100 100 100 100 100 100 100 100 100 100 100 100 100 99 18 100 88 38 84 9 27 23 28
100 99 100 100 100 100 100 100 7 100 87 100 100 100 100 100 100 98 100 100 100 100 100 100 100 100 100 100 100 99 100 100 100 100 100 97 30 100 5 0 6 10 5 50 45
91 99 100 100 84 100 100 94 100 100 88 100 100 100 100 100 90 100 99 100 100 100 100 100 100 98 14 62 100 100 100 100 100 100 28 26 12 100 83 71 64 19 5 5 5
100 92 89 82 98 76 100 100 65 99 100 100 100 100 100 86 67 100 100 100 100 100 100 100 100 51 83 100 100 100 100 100 100 100 90 39 69 99 100 92 11 5 5 2 5
100 100 62 99 100 80 81 100 100 100 100 100 100 100 100 100 26 57 100 100 100 100 100 100 100 100 100 100 100 100 100 100 100 100 100 78 15 98 100 100 91 8 6 80 99
99 100 75 100 69 74 47 38 100 100 100 100 100 100 100 100 100 100 100 100 100 100 100 100 100 100 96 100 100 100 19 20 86 100 100 100 64 100 100 100 100 88 28 2 9

GFSSW_prec_cloud_168.txt.gz
Cloud_Cover
100 100 100 100 100 100 100 100 100 100 100 100 100 100 100 100 100 100 100 100 100 100 100 99 100 100 84 67 86 44 32 5 8 5 48 97 23 5 4 0 0 0 0 0 0
100 100 100 100 100 100 98 100 100 100 100 100 100 100 100 100 100 100 100 100 100 100 100 100 100 84 82 67 92 93 52 9 58 25 16 9 54 5 5 0 0 0 0 0 0
100 100 100 100 100 100 100 100 100 100 100 100 100 100 100 100 100 100 100 100 100 100 100 100 100 100 74 57 72 97 31 9 76 5 11 5 5 5 5 5 0 0 0 0 0
100 100 100 100 100 100 100 100 100 100 100 100 100 100 100 100 100 100 100 100 100 100 100 100 100 100 77 66 34 61 15 6 55 6 6 5 5 5 5 5 0 0 0 0 0
100 100 100 100 100 100 100 100 100 100 100 100 100 100 100 100 89 100 100 100 100 100 100 100 100 100 100 63 88 38 8 70 100 64 5 5 5 5 5 10 5 1 0 0 0
100 100 100 100 100 100 100 100 100 100 100 100 100 100 100 100 83 100 100 100 100 100 100 100 100 100 93 70 63 39 17 95 100 100 65 5 5 21 5 48 5 5 5 0 0
100 100 100 100 100 100 100 100 100 100 100 100 100 100 96 100 99 100 100 100 100 100 100 100 100 100 100 53 91 82 30 94 75 72 100 65 16 96 5 5 5 5 5 5 3
58 100 100 100 100 100 100 100 100 100 100 100 100 100 53 48 100 100 100 100 100 100 100 100 100 100 100 72 100 99 9 94 78 100 59 39 92 10 5 6 24 26 53 18 5
100 100 100 100 100 100 100 100 100 100 100 100 100 100 100 100 100 100 100 100 100 100 100 100 100 100 100 100 100 100 87 56 100 100 100 39 100 18 5 5 5 7 98 75 28
12 96 93 100 100 100 100 100 100 100 100 100 100 100 98 100 100 94 100 100 100 100 100 100 100 100 100 100 100 100 83 33 83 97 90 76 90 5 5 5 5 8 42 43 10
95 97 76 100 100 100 100 100 100 100 100 100 100 100 100 100 100 100 100 100 100 100 100 100 100 100 100 100 100 100 95 92 95 8 16 19 67 18 5 5 5 5 5 5 5
4 96 100 100 100 100 100 100 100 100 100 100 100 100 100 100 100 100 100 100 100 100 100 100 100 100 100 100 100 100 100 100 100 58 100 11 79 76 6 44 36 35 31 5 5
1 58 100 100 100 100 100 100 100 100 100 100 100 100 100 100 100 100 100 100 100 100 100 100 100 100 100 100 100 100 100 100 100 100 100 96 25 100 54 31 96 100 100 57 6
0 4 98 100 100 100 100 100 100 100 100 100 100 93 100 100 100 100 100 100 100 100 100 93 100 100 100 100 100 100 100 100 100 100 100 100 100 100 100 100 100 100 100 88 5
0 2 89 96 100 100 100 100 100 100 100 100 96 60 98 100 100 100 100 100 84 100 100 100 100 100 100 100 100 100 100 100 100 100 100 100 60 100 100 100 100 100 100 100 100
5 36 96 100 100 100 100 100 100 100 100 100 100 63 88 91 95 100 100 100 100 100 100 86 99 94 100 100 100 100 100 100 100 100 74 100 88 93 100 100 100 100 100 100 100
100 5 99 76 100 100 100 100 100 100 100 100 100 99 36 88 100 100 100 100 100 100 100 100 100 100 100 100 100 100 100 100 100 100 70 100 100 85 100 100 100 100 100 100 100
89 50 61 100 100 100 100 100 100 100 100 98 60 100 100 100 100 100 100 100 100 100 100 100 100 100 100 100 100 100 100 100 100 100 100 100 59 42 80 100 100 100 100 100 100
100 94 55 100 100 100 100 100 100 100 100 81 100 100 100 100 100 100 72 90 100 100 100 100 100 100 100 100 100 100 100 100 100 85 19 16 9 33 100 99 76 100 100 100 100
100 100 100 100 100 100 100 97 100 100 100 100 100 99 100 100 99 100 88 53 98 99 100 100 100 100 100 100 100 100 100 100 100 100 100 76 39 58 100 100 100 100 100 100 100
100 98 96 53 86 100 100 100 100 81 100 100 100 100 100 100 100 100 57 100 100 100 100 100 100 100 100 100 100 100 100 100 100 100 100 44 60 100 100 100 65 33 90 100 100
31 95 98 100 100 100 100 100 17 64 100 100 100 100 93 97 100 100 100 100 100 100 100 100 100 100 100 100 100 100 100 100 100 100 100 99 17 100 100 89 22 77 98 100 92
100 100 100 57 96 90 97 8 5 98 100 100 100 100 100 100 97 59 100 100 100 100 100 100 100 100 100 100 100 100 100 100 100 100 100 99 26 100 8 5 5 5 5 5 87
95 87 100 100 100 84 100 100 13 5 98 9 35 100 100 100 86 100 100 100 100 100 100 100 100 100 50 93 100 100 100 100 100 100 81 58 15 100 93 95 58 5 5 5 5
94 92 84 79 100 100 100 100 99 5 6 38 100 100 100 100 100 100 100 100 100 100 100 100 100 100 100 100 100 100 100 100 100 100 100 100 93 98 100 88 30 61 36 5 5
100 22 86 9 18 7 78 72 100 100 51 100 100 100 100 96 100 100 100 100 100 100 100 100 100 100 100 100 100 100 100 100 100 100 100 100 100 100 100 100 46 8 58 71 6
66 37 57 73 58 30 44 4 88 100 100 32 100 100 99 91 60 100 100 100 100 100 100 100 100 100 89 100 100 100 73 100 100 100 100 100 100 100 100 100 100 100 100 51 8

GFSSW_prec_cloud_171.txt.gz
Cloud_Cover
100 100 100 100 100 100 100 100 100 100 100 100 100 100 100 100 100 100 100 100 100 100 100 100 100 100 100 72 13 5 5 5 8 19 63 84 42 66 24 23 43 5 4 0 0
100 100 100 100 100 100 100 100 100 100 100 100 100 100 100 100 100 100 100 100 100 100 100 100 100 100 99 87 38 12 5 5 5 84 36 6 7 11 35 71 48 28 5 2 2
100 100 100 100 100 100 100 100 100 100 100 100 100 100 100 100 100 100 100 100 100 100 100 100 100 100 100 97 100 99 13 5 76 100 5 5 16 19 19 32 39 5 5 5 5
100 100 100 100 100 100 100 100 100 100 100 100 100 100 100 100 100 100 100 100 100 100 100 100 100 100 100 100 100 100 60 27 56 99 5 9 86 19 61 78 40 5 5 5 5
100 100 100 100 100 100 96 100 100 100 100 100 100 100 100 100 70 100 100 100 100 100 100 100 100 100 100 100 100 100 100 79 62 69 33 5 57 5 74 72 34 5 7 5 5
100 100 100 100 100 100 100 100 100 100 100 100 100 100 100 95 98 71 100 100 100 100 100 100 100 100 100 100 100 100 100 100 89 32 38 7 5 30 46 18 85 5 5 5 5
8 100 100 100 100 100 100 100 100 100 100 100 100 100 100 100 69 100 100 100 100 100 100 100 100 100 100 100 100 100 100 100 100 54 47 56 59 100 11 9 5 5 11 19 5
5 100 100 100 100 100 100 100 100 100 100 100 100 100 100 100 100 100 100 100 100 100 100 91 100 100 100 100 100 100 95 94 100 100 10 6 95 63 5 5 61 5 5 17 5
0 70 100 100 100 100 100 100 100 100 100 100 100 100 100 100 100 100 100 100 100 97 100 100 75 51 96 100 100 100 100 100 100 100 99 10 100 16 6 30 89 37 9 5 5
0 4 99 100 100 100 100 100 100 100 100 99 100 98 100 100 100 100 100 100 100 99 100 100 91 5 5 99 100 100 100 100 98 100 95 69 96 80 5 6 56 41 5 13 39
0 2 99 98 100 100 100 100 100 100 100 100 98 96 100 100 100 100 100 100 100 100 100 100 100 100 100 100 100 100 100 100 100 100 100 100 100 100 5 6 55 100 100 87 8
5 0 56 100 100 100 100 100 100 100 100 100 98 100 100 100 100 100 100 100 100 100 100 76 49 100 100 100 100 100 100 100 100 100 100 100 100 100 39 15 98 63 93 24 38
5 2 45 100 98 99 100 100 100 100 100 100 100 100 100 100 100 100 100 100 100 100 100 99 99 100 100 100 96 100 100 100 100 100 100 100 100 100 100 58 100 100 99 100 80
5 5 5 95 94 93 100 100 100 100 100 100 100 100 100 100 100 100 100 100 100 100 100 100 100 100 99 100 100 100 100 100 100 100 100 100 82 100 100 99 100 100 100 40 94
75 5 5 98 100 96 97 100 100 100 100 100 99 95 100 77 58 100 100 100 100 100 100 100 100 100 100 100 100 99 100 100 100 100 100 100 78 100 100 100 100 100 100 100 100
35 38 10 84 98 99 100 100 100 100 100 100 100 100 100 100 98 93 91 100 100 98 100 56 61 100 100 100 100 100 100 100 100 100 83 100 98 97 100 100 100 100 100 100 100
57 99 5 5 32 41 100 100 100 100 100 100 100 100 72 100 96 100 100 100 100 100 99 100 98 100 100 100 100 100 100 100 100 100 98 100 100 98 100 100 100 100 100 100 100
100 100 50 71 98 78 99 100 100 100 100 100 100 100 100 100 99 100 100 99 100 100 100 100 82 88 99 100 100 100 100 100 91 52 32 100 100 100 100 100 100 100 100 100 100
100 90 78 5 96 100 100 100 100 100 100 100 100 100 100 100 98 93 100 100 100 100 100 100 100 100 100 100 100 100 100 100 100 99 9 15 6 100 100 100 100 100 100 100 100
100 100 100 8 96 100 100 100 100 100 100 100 88 100 100 97 97 88 92 84 100 100 100 100 73 89 100 100 100 100 100 100 100 100 97 90 69 100 100 100 100 100 100 100 100
100 100 100 95 89 100 100 100 66 100 100 100 100 100 81 100 100 100 91 94 100 100 100 100 100 100 100 100 100 100 100 100 100 100 100 100 100 100 100 100 100 100 100 100 100
100 100 100 100 72 90 100 81 6 99 100 100 100 100 100 100 100 100 69 98 100 100 100 100 100 100 100 100 100 100 100 100 100 100 100 91 28 100 100 99 55 96 100 100 100
100 100 100 100 88 99 100 24 8 100 100 100 100 100 100 100 100 100 100 93 100 100 100 100 98 100 99 62 51 91 100 100 100 100 100 76 27 100 100 100 100 35 5 5 10
88 100 100 100 91 15 68 100 100 6 58 100 98 65 100 100 100 100 100 100 100 100 100 100 100 17 5 73 100 100 100 100 100 100 95 36 84 100 100 100 98 100 82 15 5
100 89 95 92 97 11 5 5 46 60 5 64 99 100 100 98 100 100 100 100 100 100 100 100 100 76 7 46 100 100 100 100 100 100 100 100 75 100 100 56 97 87 63 10 5
100 100 80 72 5 6 52 86 100 100 38 18 100 100 100 100 76 100 100 100 100 100 100 100 100 100 50 34 10 99 100 100 100 100 100 100 100 100 100 99 8 7 100 100 44
100 94 34 61 65 20 15 6 4 30 15 5 3 26 7 75 87 100 100 100 96 100 100 100 100 100 96 100 100 100 6 31 92 76 100 100 100 100 100 100 100 100 100 100 100

GFSSW_prec_cloud_174.txt.gz
Cloud_Cover
100 100 100 99 100 100 100 100 100 99 100 100 100 100 100 100 100 100 100 100 100 72 91 95 100 100 100 100 59 98 66 30 5 5 5 60 23 5 35 5 7 5 5 5 4
100 100 100 100 100 100 100 100 100 100 100 100 100 100 100 100 100 100 100 100 100 100 100 94 99 100 100 100 97 87 27 68 6 5 5 12 40 5 62 49 26 44 5 5 5
100 100 100 100 100 97 100 100 100 100 100 100 100 100 100 100 100 100 100 100 100 100 100 100 100 100 100 100 100 100 100 46 100 83 5 5 81 93 60 90 14 6 5 89 17
100 100 100 100 100 100 98 100 100 100 100 100 100 100 100 62 92 100 100 100 100 100 100 100 100 100 100 100 100 100 100 100 100 100 17 5 68 100 78 69 78 5 60 63 18
94 100 100 100 100 100 90 100 100 100 100 100 100 100 100 95 25 100 100 100 100 100 100 100 100 100 99 99 100 100 100 100 100 100 100 7 20 100 99 13 55 5 6 73 10
8 100 100 100 100 100 100 100 100 100 100 100 100 100 84 44 86 82 100 100 100 100 82 100 97 100 100 99 87 100 100 100 100 100 100 22 6 99 99 80 7 5 55 72 8
0 100 100 100 100 100 100 100 100 100 100 100 100 100 100 100 33 80 100 100 100 100 100 98 100 100 100 100 100 100 100 100 100 100 100 86 83 86 70 100 98 31 8 64 28
0 4 55 100 100 100 100 100 100 100 100 100 100 100 100 100 100 92 100 100 100 100 100 100 100 67 94 100 100 100 100 100 100 100 100 100 100 100 5 100 100 50 17 93 30
0 0 6 80 100 100 100 100 100 100 100 93 86 100 100 100 100 100 100 100 100 100 100 100 100 80 47 27 88 100 94 100 100 100 100 100 100 100 62 88 100 100 40 49 96
3 0 5 22 100 100 100 100 100 100 100 100 95 74 11 100 100 100 100 100 99 100 100 85 58 58 15 87 74 88 100 100 100 100 100 100 100 100 100 93 99 100 100 57 77
4 0 0 13 100 100 100 100 100 100 100 78 88 100 100 100 100 100 100 100 100 100 100 51 35 6 100 100 100 99 29 47 89 100 100 100 100 100 100 100 100 100 100 69 7
5 0 0 4 71 81 100 100 100 100 100 100 100 83 98 100 100 100 100 100 100 100 100 100 96 100 100 100 99 35 61 35 100 100 100 100 100 100 100 100 100 100 100 100 72
5 0 0 0 22 100 100 100 100 100 100 100 100 100 92 100 100 100 100 100 100 100 100 100 98 100 100 100 97 100 68 89 100 99 83 100 98 100 100 100 100 100 100 100 100
5 1 0 4 45 100 100 98 100 100 100 100 100 100 100 100 100 100 100 100 100 100 100 100 66 100 100 99 87 48 98 100 100 89 42 28 72 100 100 100 100 100 100 100 100
56 5 5 30 17 100 100 100 100 100 100 100 100 100 100 100 100 100 100 100 100 100 100 100 100 100 93 100 100 79 95 100 100 30 5 5 6 99 100 100 100 100 100 100 100
18 6 5 59 88 100 100 100 100 100 100 100 100 100 100 100 100 100 100 100 100 100 100 100 100 100 100 100 100 100 100 100 99 93 41 64 6 96 100 100 100 100 100 100 100
5 5 77 31 100 98 100 96 100 100 96 100 100 100 100 100 100 100 100 100 100 100 96 100 100 100 100 100 99 63 100 95 91 100 46 100 34 90 93 100 100 100 100 100 100
88 74 86 89 17 86 6 100 100 100 100 98 100 100 100 100 100 100 100 100 100 100 100 87 93 100 100 100 100 100 100 100 99 51 5 46 5 73 34 100 100 100 100 100 100
74 100 100 97 43 46 85 100 100 83 100 100 100 100 100 100 100 100 100 100 100 100 100 100 100 100 100 100 100 100 93 100 99 7 5 1 23 100 99 94 100 100 100 100 100
100 100 100 100 43 86 100 100 100 100 100 100 100 97 100 100 100 100 100 100 100 100 100 96 96 100 100 100 100 94 81 71 80 51 44 1 6 100 100 100 100 100 100 100 100
100 100 100 85 74 100 98 100 100 100 100 100 100 100 100 100 100 100 100 90 100 100 100 100 100 100 100 100 100 100 100 100 100 78 9 5 81 100 100 100 100 100 100 100 100
100 100 100 100 55 85 96 99 100 100 100 100 100 100 100 100 100 100 33 98 95 100 100 100 100 100 96 100 100 100 100 100 100 100 100 17 26 100 100 100 55 100 100 100 100
100 100 100 100 42 98 99 100 100 100 100 100 100 100 100 100 100 100 63 53 97 100 100 100 100 100 100 95 24 78 87 100 100 100 100 76 78 100 39 100 32 7 36 94 100
100 100 100 100 62 72 90 18 100 100 100 100 100 100 100 100 100 100 100 100 100 98 100 100 100 64 23 32 99 74 100 100 100 100 92 10 93 100 100 100 100 45 59 6 53
26 97 84 94 100 14 5 5 25 9 18 100 100 100 100 100 100 100 100 100 100 100 100 100 100 24 41 100 100 100 100 100 100 100 83 69 13 100 100 100 100 100 100 80 90
49 44 69 94 14 17 34 5 5 92 100 100 100 100 100 100 100 100 100 100 100 100 100 100 98 96 5 58 100 100 100 100 82 59 20 5 5 100 100 52 22 85 99 100 100
100 99 16 42 75 6 5 4 0 0 0 79 73 100 100 100 100 100 100 100 100 100 100 100 100 100 69 63 100 100 5 96 100 100 97 11 89 100 98 100 100 56 10 5 60